Simultaneous Nadir Overpasses (SNOs) Predictions

Prediction of SNOs between LANDSAT-8 and METOP-B Satellite Orbit:

Table of predicted SNOs for the next 14.0 days since TLE Epoch: 10/28/2017
Index Date (LANDSAT-8) Time (LANDSAT-8) Lat,Lon (LANDSAT-8) SZA (LANDSAT-8 ) Date (METOP-B) Time (METOP-B) Lat,Lon (METOP-B) SZA (METOP-B ) Distance(km) Time Diff (sec)
1 10/29/2017 08:33:31 81.13, 91.56 97.07 10/29/2017 08:32:23 81.12, 91.69 97.06 2.11 68
2 10/29/2017 09:22:57 -81.14,-100.52 82.88 10/29/2017 09:23:02 -81.14,-100.35 82.86 2.82 5
3 11/01/2017 04:07:47 81.10, 157.64 97.93 11/01/2017 04:06:47 81.10, 157.48 97.89 2.68 60
4 11/01/2017 04:57:12 -81.14, -34.05 81.96 11/01/2017 04:57:25 -81.14, -34.18 81.97 2.32 13
5 11/03/2017 23:42:00 81.12,-135.60 98.86 11/03/2017 23:41:07 81.12,-135.64 98.83 0.99 53
6 11/04/2017 00:31:26 -81.14, 32.38 81.08 11/04/2017 00:31:46 -81.14, 32.33 81.08 0.99 20
7 11/06/2017 19:16:15 81.12, -69.23 99.69 11/06/2017 19:15:29 81.12, -69.20 99.68 0.54 46
8 11/06/2017 20:05:41 -81.14, 98.76 80.25 11/06/2017 20:06:08 -81.14, 98.78 80.24 0.21 27
9 11/09/2017 14:50:29 81.13, -2.54 100.53 11/09/2017 14:49:50 81.13, -2.44 100.53 1.85 39




NCC Satellite Simultaneous Nadir Overpasses (SNOs) Prediction Service
